Theta_e
288 288 288 287 287 287 286 285 285 285 284 284 283 283 282 283 283 282 283 282 282 282 282 282 281 281 282 281 281 281 281 281 281 281 280 280 280 279 281 279 279 279
287 287 287 286 286 286 285 285 285 284 284 283 284 283 283 282 283 282 282 282 281 281 281 281 281 280 280 280 280 279 279 279 278 282 279 279 279 278 278 278 278 279
286 285 285 284 285 284 285 285 284 284 283 283 283 283 284 283 282 281 281 281 280 280 280 280 279 279 279 278 279 278 278 278 278 278 278 278 278 278 278 278 277 277
285 285 285 284 284 284 284 284 283 283 283 282 282 283 283 283 281 280 280 281 279 279 278 278 278 278 278 277 278 278 277 277 277 277 277 278 278 277 277 277 278 277
284 284 284 284 284 284 283 282 282 282 281 281 281 281 281 280 279 278 278 278 277 277 277 277 277 277 277 277 277 276 277 277 276 276 276 276 277 277 277 277 276 276
284 284 284 284 283 283 282 281 281 281 280 279 280 280 279 278 278 277 277 277 277 277 276 276 276 276 276 276 275 275 275 276 276 275 275 274 275 276 278 277 275 275
283 283 283 283 282 282 281 281 281 281 279 279 279 278 278 277 277 276 276 276 276 276 276 276 275 275 275 275 275 274 274 275 275 275 274 274 274 274 275 275 275 274
283 282 282 282 281 281 280 280 279 279 279 278 277 277 277 277 276 276 276 276 276 275 275 275 275 275 274 274 274 274 273 276 276 273 273 273 273 273 273 276 274 273
282 282 282 281 280 279 279 279 278 278 278 277 277 277 276 276 275 275 276 275 275 275 274 275 275 274 274 274 273 273 272 272 274 273 273 273 273 273 273 273 273 273
281 281 281 280 279 278 278 277 277 277 277 277 276 276 276 275 275 275 275 274 274 274 274 273 273 273 273 273 273 273 272 272 272 272 273 273 273 272 272 273 272 272
281 281 280 279 278 277 277 276 276 276 276 275 275 275 275 274 275 274 274 274 274 273 273 273 273 273 273 272 272 272 272 272 272 273 273 273 273 273 275 272 272 272
280 280 279 278 277 276 276 276 275 275 275 274 274 274 273 273 272 273 273 272 272 272 272 272 272 272 272 271 271 272 272 272 273 273 273 273 272 273 273 272 272 272
280 279 279 278 277 276 275 275 275 275 274 273 273 273 272 272 272 272 273 271 272 272 271 271 272 271 271 271 271 272 272 273 273 272 273 272 273 273 273 273 272 272
280 279 278 278 276 276 275 276 275 274 273 273 273 272 272 272 271 272 271 271 271 271 271 271 271 271 271 270 271 272 272 272 272 272 272 272 272 273 272 272 273 272
280 279 278 277 276 275 275 274 274 273 273 272 272 272 273 271 271 271 271 271 271 271 271 271 271 271 271 270 270 272 273 273 273 272 272 272 272 272 272 272 272 273
280 279 278 277 276 276 275 274 273 272 272 271 271 270 270 270 270 270 270 270 270 270 270 271 271 271 273 274 275 274 273 274 274 273 272 272 271 271 271 272 272 272
279 277 276 276 276 275 274 273 272 271 270 270 269 268 269 269 269 270 269 270 270 269 269 270 270 271 274 275 276 276 275 274 273 273 273 273 272 271 270 271 271 272
278 277 277 276 275 274 273 272 271 270 270 269 268 268 268 267 268 269 269 269 269 269 268 269 269 274 275 275 276 276 276 275 274 273 273 273 273 272 272 271 270 270
279 278 277 275 274 273 271 270 270 270 269 268 268 268 267 267 269 269 268 268 268 268 267 267 268 273 275 275 275 276 276 276 274 273 272 272 273 273 272 271 270 269
278 277 276 275 273 271 270 269 269 269 268 268 268 268 268 267 266 267 267 267 267 267 266 267 267 271 274 275 275 276 276 276 274 273 273 272 272 272 271 270 269 269
278 276 275 273 272 270 269 269 268 268 268 268 268 268 267 267 267 266 266 265 264 265 265 265 266 272 274 275 275 276 276 276 274 273 272 272 272 271 270 269 269 270
277 275 274 272 271 270 269 269 268 268 268 268 267 267 266 266 266 266 266 265 264 263 263 264 265 272 273 274 275 275 275 273 272 271 271 270 269 270 270 270 270 270
277 275 273 272 270 269 268 268 268 267 267 267 266 268 267 266 265 265 264 264 263 263 263 263 263 268 272 274 274 275 274 271 270 270 270 269 270 270 271 271 270 270
277 275 274 272 270 270 269 269 269 268 267 267 267 266 267 265 264 263 262 263 263 263 263 261 262 266 271 273 274 274 273 271 270 269 269 269 269 270 270 270 270 273
276 275 274 272 271 271 270 269 269 268 267 266 266 265 265 264 264 263 261 261 262 262 266 264 262 265 270 272 274 274 273 271 270 269 268 269 269 269 271 271 271 273
275 275 274 273 272 270 269 269 268 266 266 266 265 265 264 263 262 262 262 262 262 262 262 263 263 262 264 270 272 273 274 272 270 269 268 268 269 269 269 271 271 271
Wind_Speed
8 7 8 8 8 7 7 8 7 7 7 6 6 5 5 3 4 3 3 4 4 4 4 4 4 4 5 4 5 4 4 4 4 4 5 5 4 4 5 5 5 4
8 9 8 8 7 7 7 7 7 7 7 6 6 5 4 4 4 4 4 4 4 4 4 4 4 4 4 4 4 4 4 4 4 3 5 5 4 4 4 4 4 4
8 8 8 8 8 8 8 7 6 6 6 6 5 4 4 4 4 4 3 4 4 4 4 3 4 4 4 4 4 4 4 4 4 4 4 4 4 3 4 3 4 4
8 8 8 7 7 7 7 8 6 5 5 6 5 4 4 4 4 4 4 4 4 4 4 4 4 4 4 4 4 4 4 3 3 4 4 4 4 3 4 3 3 3
8 8 7 7 6 6 6 6 6 6 5 5 5 4 5 4 4 4 4 4 4 4 4 4 4 4 4 4 4 3 4 4 4 4 4 4 4 3 3 3 3 4
7 7 7 7 6 7 7 6 5 5 5 5 5 5 4 5 4 4 4 4 3 4 4 3 3 3 3 3 3 3 4 4 3 4 4 4 4 4 3 3 3 4
8 8 7 7 7 6 6 5 5 5 5 5 5 5 4 5 4 4 3 3 3 2 2 1 2 2 3 3 3 3 3 3 3 3 3 3 3 4 3 3 3 4
8 7 7 7 7 6 6 5 5 6 5 5 5 4 4 4 4 4 3 3 1 1 1 1 1 1 2 2 2 2 3 2 3 3 3 3 3 3 3 3 3 3
8 8 7 7 7 6 6 6 5 5 5 6 5 4 4 4 4 3 2 2 1 1 2 1 1 1 2 2 1 1 1 2 2 2 2 2 3 3 3 3 3 3
8 8 8 7 7 6 7 6 6 5 4 5 5 4 5 4 3 2 1 2 1 2 1 1 1 1 1 1 1 0 1 1 2 2 2 2 2 3 3 3 3 3
8 8 8 7 7 7 7 7 6 6 4 5 5 4 4 4 4 3 1 2 2 1 1 0 0 0 0 1 1 1 1 2 2 1 2 2 3 3 4 3 3 3
9 8 8 8 8 7 8 7 7 6 5 4 4 5 4 4 3 2 3 1 2 1 1 1 0 0 1 1 0 1 1 2 2 2 2 2 3 3 3 3 3 3
9 9 9 8 8 8 7 7 7 6 5 5 4 4 4 4 4 2 1 3 1 2 1 1 0 1 1 0 1 2 3 3 3 3 3 3 3 3 3 4 3 3
10 8 8 8 7 7 7 7 7 6 5 4 4 4 4 4 4 4 2 3 2 1 1 1 0 1 1 2 3 2 2 3 3 3 3 3 3 4 3 3 4 4
8 7 8 8 8 8 9 8 7 6 5 5 4 3 4 3 3 3 2 3 3 3 1 0 1 1 1 2 1 1 1 2 2 3 3 3 3 3 4 4 4 4
9 8 8 8 9 9 9 8 8 7 7 5 4 3 3 3 3 2 3 3 3 2 2 2 1 1 3 3 3 2 2 3 3 3 3 3 3 4 4 4 4 4
9 8 9 9 8 8 7 8 8 7 6 5 4 4 4 3 3 4 3 3 3 2 2 2 2 2 5 4 3 4 3 3 3 4 4 4 4 4 4 4 4 4
10 10 10 9 8 8 8 7 7 7 6 5 5 4 4 4 4 4 4 3 3 2 2 3 2 4 6 5 4 4 4 3 3 3 4 4 5 5 4 4 4 4
11 12 10 9 9 8 8 7 8 7 6 6 7 5 4 5 6 5 4 3 4 4 3 3 1 5 6 5 5 5 5 5 3 4 4 5 5 6 6 4 4 5
12 11 10 10 8 8 8 8 8 8 6 5 5 5 6 4 4 5 5 4 4 4 3 2 2 5 6 6 6 6 6 5 4 4 5 5 6 6 4 4 4 4
12 10 10 9 9 9 8 8 8 7 7 7 7 7 7 7 7 6 5 4 4 3 2 3 2 6 7 7 7 7 6 6 4 4 4 5 6 5 4 4 4 5
12 11 10 9 10 9 9 9 8 9 9 7 6 5 4 4 4 5 5 5 4 3 3 4 4 8 8 7 7 6 7 3 3 4 4 3 3 4 4 4 4 5
13 12 11 11 11 11 10 10 10 8 7 6 6 7 7 7 7 5 4 5 4 4 4 5 4 6 8 8 7 7 5 1 3 3 4 4 5 5 5 5 4 4
13 13 13 12 11 13 12 10 8 5 7 8 9 9 8 7 5 4 4 4 5 6 6 5 5 6 9 8 8 8 7 4 4 4 5 5 4 6 5 5 6 12
11 12 12 13 13 13 11 11 11 10 7 7 6 5 6 5 5 5 4 4 4 5 7 6 5 7 10 10 10 9 6 3 4 3 5 5 4 5 5 5 6 7
10 12 12 13 13 10 9 9 7 7 8 8 6 6 6 6 4 5 5 5 5 5 6 5 5 6 6 11 10 10 10 5 5 5 5 5 5 6 5 5 6 6
Wind_Direction
106 103 103 99 97 100 102 102 100 102 97 93 96 97 99 97 69 58 75 87 68 50 42 37 37 31 17 15 5 5 38 28 13 34 2 358 350 16 14 6 348 0
100 99 100 98 96 94 95 98 103 105 107 109 108 105 97 87 80 74 51 62 72 59 48 42 35 38 23 14 2 9 33 10 24 21 4 349 337 12 9 1 356 348
101 101 103 109 113 109 105 99 97 99 105 106 101 102 106 105 95 92 75 71 66 70 52 46 38 35 23 9 5 3 24 2 35 16 4 338 339 5 352 8 354 344
98 105 111 111 109 108 104 107 109 106 102 102 117 122 114 103 95 84 68 69 67 53 50 44 43 31 25 10 5 354 8 12 49 28 354 338 331 12 349 11 339 344
116 114 113 109 107 105 106 112 115 116 122 129 105 94 92 86 82 77 64 57 71 52 45 44 36 28 22 11 356 18 7 24 12 16 354 340 324 13 338 359 335 336
114 116 111 111 111 112 115 120 125 123 118 105 112 104 97 93 90 81 77 67 54 62 45 32 38 15 17 6 5 18 13 19 350 6 352 336 328 337 333 352 355 340
125 120 117 113 111 118 125 134 130 121 118 119 99 98 103 97 89 87 82 83 70 69 83 37 44 23 348 29 11 10 356 359 355 354 353 322 338 331 335 2 352 334
125 120 117 119 123 129 132 131 125 123 127 107 109 111 103 102 107 104 98 98 109 90 86 42 51 12 356 31 10 2 350 350 357 352 335 321 334 326 333 336 350 321
125 125 127 132 135 140 137 133 129 123 119 125 122 120 104 107 110 115 112 112 114 111 99 41 53 22 3 30 353 10 341 335 327 334 312 313 326 313 322 322 335 326
132 135 139 145 145 150 142 135 127 120 117 121 133 124 124 130 125 120 117 133 132 111 86 114 38 37 353 344 353 315 360 310 311 306 308 312 319 318 314 324 320 334
144 146 152 154 151 149 144 134 129 128 126 133 128 132 142 147 144 141 149 133 139 126 129 147 140 135 292 300 322 6 346 291 282 306 314 320 316 313 320 325 323 307
154 156 162 157 151 148 144 139 135 133 134 130 134 143 143 137 132 146 146 140 134 146 163 183 160 162 248 246 270 336 327 312 328 335 331 323 311 309 311 310 298 291
162 166 161 154 152 149 141 134 135 138 137 139 142 151 151 149 148 156 174 150 208 137 180 172 180 246 250 329 47 22 9 354 345 335 320 323 307 306 305 295 291 289
167 163 153 150 147 144 140 137 136 137 136 135 134 153 151 148 166 161 198 143 198 155 190 133 199 304 290 78 50 28 16 346 342 317 305 305 302 293 290 292 291 288
159 154 149 147 148 145 142 143 144 142 138 139 153 164 144 150 156 153 190 189 181 174 186 245 148 236 111 101 80 348 330 300 290 295 302 296 296 302 300 297 295 290
156 150 149 148 150 153 152 149 147 147 145 151 161 152 146 154 169 190 189 203 185 191 173 166 191 205 147 165 187 198 254 271 286 281 285 289 295 298 295 290 292 297
148 150 149 159 161 151 151 151 150 147 149 155 162 154 167 163 168 205 198 204 183 178 188 198 185 193 210 215 232 260 265 267 273 284 287 292 284 284 290 298 296 298
157 154 160 165 159 161 161 156 146 146 155 161 162 163 174 167 200 207 206 191 170 177 181 211 215 227 224 232 250 259 262 264 266 276 282 282 287 284 284 292 296 303
160 163 168 169 169 163 158 151 150 153 158 166 181 179 171 184 205 203 201 188 171 186 203 219 200 248 243 243 254 264 270 276 272 271 270 272 276 281 282 287 298 299
162 167 173 172 163 159 158 157 159 173 171 167 166 173 183 189 205 202 194 191 182 183 195 208 209 244 245 247 254 259 267 273 265 266 268 270 271 275 281 286 290 289
167 172 172 167 164 163 164 166 169 165 167 175 179 186 183 191 197 192 199 186 182 165 178 230 229 240 245 247 250 256 263 270 268 268 267 267 271 273 273 269 271 276
172 175 171 167 165 168 172 174 174 178 177 175 175 187 189 183 203 186 196 185 174 172 193 236 243 244 245 243 246 252 261 262 256 259 259 262 268 268 266 258 255 255
176 174 174 171 170 173 181 180 176 181 177 166 174 187 185 191 195 191 185 177 182 184 195 233 240 247 248 244 246 246 246 227 246 245 254 255 259 263 264 264 262 260
180 176 174 173 173 184 186 185 178 171 175 175 180 183 189 191 180 185 190 181 189 196 195 207 241 244 243 248 249 240 230 215 227 239 251 252 253 261 259 255 254 271
177 176 176 176 184 191 183 176 179 181 172 165 182 181 179 160 164 177 203 210 206 202 204 207 233 249 252 251 246 241 232 216 222 221 241 244 244 250 253 249 252 260
177 179 182 182 189 184 178 177 155 146 164 170 177 173 162 157 162 176 199 222 213 203 211 207 220 246 249 250 242 234 227 208 207 229 233 247 245 255 250 253 249 243